Theta_e
292 289 287 287 289 289 289 288 287 286 288 287 284 282 284 283 284 285 287 289 287 288 287 285 285 285 288 290 292 292 289 288 288 289 291 292 293 294 294 294 294 293 295 296 296 297 298 300 304 306 307 309 309 310 311 312 312 312 313 310 310 308 308 309 307 307 307 306 305 305 310 313 312 311 310 311 311 311 314 315 318 320 321 323 323 320
291 288 287 288 290 291 290 286 286 287 286 288 285 284 283 284 286 287 289 288 288 288 284 282 284 286 288 290 291 291 288 290 291 290 290 291 292 293 294 294 294 295 292 293 294 296 295 299 302 305 307 307 309 309 310 311 312 311 310 310 310 307 307 309 309 308 307 302 304 305 307 305 308 308 309 311 310 309 308 309 313 315 318 320 321 319
288 286 289 289 287 287 286 285 285 287 285 284 286 283 284 284 284 288 288 288 288 289 284 282 285 288 289 290 291 289 291 292 291 291 292 292 292 292 292 292 293 292 294 291 293 293 296 298 301 304 306 308 311 310 309 310 309 308 308 309 308 307 308 307 306 307 306 298 298 301 299 306 303 302 305 307 304 306 307 307 309 313 314 317 318 318
286 287 289 287 287 288 285 285 286 285 284 283 282 283 283 285 285 285 286 287 287 286 287 284 285 289 289 287 289 292 292 290 289 289 291 291 291 292 292 292 292 292 293 293 294 295 295 296 299 300 304 307 307 307 306 307 308 308 307 307 307 306 306 306 305 305 301 302 297 297 299 299 303 304 302 303 303 304 305 307 306 308 312 314 315 317
285 287 288 287 287 291 287 285 286 286 285 283 282 281 283 285 284 282 285 285 282 287 283 284 284 285 280 282 284 284 284 286 289 288 289 291 291 292 291 290 291 293 293 293 292 292 293 296 300 303 305 303 306 306 307 307 308 309 308 307 306 306 305 305 303 304 301 301 298 297 296 296 299 301 303 304 305 304 305 306 306 307 308 311 312 313
286 287 287 288 287 287 287 285 285 287 283 286 283 284 285 285 286 285 285 284 277 281 282 283 281 275 277 280 282 285 284 286 284 285 288 288 287 288 290 291 291 291 292 293 293 293 294 297 297 300 301 304 305 306 307 308 308 307 306 305 304 304 304 304 303 303 303 304 302 299 300 298 297 301 301 304 307 306 305 306 306 306 307 309 311 312
285 287 288 288 287 286 287 287 286 287 283 283 286 286 285 286 285 283 282 281 280 280 283 282 281 275 278 282 284 283 285 288 290 288 290 290 286 285 288 289 291 292 291 289 290 290 293 295 297 299 301 303 304 306 304 304 305 305 305 304 304 304 303 303 303 302 303 302 302 303 303 303 303 303 302 302 303 305 303 303 304 304 303 306 310 310
289 287 286 286 286 286 285 285 286 286 284 285 284 285 286 286 286 283 281 283 280 279 282 279 275 277 278 284 283 282 284 287 288 290 291 291 287 285 287 289 290 291 290 290 291 292 294 296 299 301 302 302 304 301 301 303 304 304 304 304 303 303 303 302 302 302 303 304 301 301 301 302 302 302 302 299 299 299 302 301 302 303 303 304 308 310
288 287 286 286 283 283 286 284 286 284 283 284 285 286 284 285 282 281 282 280 281 281 280 277 284 280 277 281 283 282 286 284 287 289 290 289 287 286 286 287 288 290 290 291 292 293 295 296 298 299 300 300 300 301 303 304 304 303 303 302 301 301 301 301 301 302 302 303 302 302 302 301 301 301 300 297 297 297 298 300 301 302 303 303 305 308
289 288 287 288 287 285 285 287 285 288 289 287 286 286 284 283 282 281 278 280 280 279 274 279 282 276 277 278 281 279 284 285 288 288 287 287 287 287 286 286 289 289 289 290 292 292 293 294 295 296 297 298 301 300 299 300 301 301 301 301 301 301 300 300 300 301 301 301 301 301 301 301 300 300 299 296 297 297 297 298 300 301 302 302 303 305
289 292 291 288 287 286 287 287 285 287 288 289 286 288 284 281 280 278 278 276 276 272 274 277 278 279 276 280 282 283 284 284 284 285 285 285 285 286 288 289 290 290 288 290 291 290 291 291 293 295 299 298 297 296 298 299 300 300 301 301 301 301 300 299 300 300 300 300 300 301 301 301 300 299 299 297 297 298 298 299 300 300 301 302 302 303
288 289 290 289 290 288 289 289 287 287 287 288 284 280 284 282 278 278 273 275 273 268 272 277 279 279 275 276 281 283 284 283 286 288 287 287 288 288 289 290 289 288 289 288 290 292 292 293 293 294 296 297 297 296 297 297 298 300 300 300 300 299 299 298 298 299 299 300 300 300 300 300 301 300 300 299 299 298 299 300 300 300 299 300 301 302
286 289 287 289 291 290 288 290 288 289 284 285 283 285 280 272 270 274 268 274 271 271 278 278 279 279 280 283 284 284 287 287 286 289 289 287 289 289 289 290 289 288 288 289 288 290 290 292 294 295 296 295 296 298 298 299 299 299 299 299 300 300 298 298 297 298 299 299 299 300 300 300 300 300 300 300 300 298 298 299 300 299 299 299 299 300
284 283 287 288 291 291 290 288 285 286 284 283 285 280 275 271 269 265 260 263 267 274 277 279 279 278 279 282 289 291 291 288 287 286 286 286 288 290 290 290 290 289 288 289 288 287 288 290 291 294 295 297 297 297 298 298 298 298 298 298 299 300 298 297 297 297 298 298 299 299 300 300 300 300 300 300 300 299 299 300 300 300 300 299 300 300
279 279 286 288 287 290 290 289 291 288 286 285 282 285 280 270 266 266 265 272 273 272 275 277 276 275 278 284 286 287 289 287 286 285 284 285 286 287 288 288 288 289 289 287 289 291 290 290 291 293 295 296 297 297 297 297 297 297 298 298 298 298 297 297 297 297 297 298 298 298 299 299 299 300 300 301 301 300 299 300 300 300 300 300 300 301
283 281 284 287 287 288 289 289 286 287 287 283 280 281 279 279 275 272 265 268 266 271 273 275 276 277 281 284 286 287 286 286 287 286 284 285 284 284 288 291 291 290 291 289 290 292 292 290 290 291 293 294 295 296 296 297 297 298 298 298 298 299 298 297 296 297 297 297 297 297 297 298 299 299 299 299 299 300 300 301 301 300 300 300 300 301
281 281 285 285 287 287 288 287 288 287 283 284 282 278 279 279 280 272 270 272 271 269 273 270 278 281 281 284 289 286 286 289 286 284 285 285 284 284 288 289 289 290 289 289 291 292 293 289 290 291 292 293 294 295 297 298 298 298 298 297 297 297 296 296 296 297 296 297 296 296 297 297 297 298 299 300 299 299 300 300 301 301 301 300 300 300
283 280 285 285 287 288 287 287 286 284 285 284 279 281 282 282 280 277 273 265 263 269 272 272 276 277 277 280 283 284 286 287 286 288 288 285 283 285 289 288 288 291 291 289 290 291 291 291 291 292 292 293 296 296 296 297 297 298 298 298 298 297 297 296 296 296 296 296 296 296 296 297 298 299 299 299 299 299 299 299 299 300 300 299 299 299
285 280 285 285 285 287 284 289 289 289 287 283 281 284 285 278 277 276 271 269 266 265 266 271 272 274 278 281 280 285 284 286 286 286 285 288 287 287 288 289 287 286 288 290 291 291 293 292 293 293 294 294 294 295 295 296 297 297 296 297 298 298 298 297 296 296 296 296 296 297 297 297 297 298 299 299 299 299 299 298 299 299 300 299 298 297
286 279 281 285 286 287 286 286 283 284 287 286 286 284 283 280 273 273 276 270 273 267 263 268 269 278 279 280 282 287 284 285 287 287 285 287 289 290 287 287 287 286 287 289 290 291 293 293 293 293 294 294 294 294 294 295 296 296 297 296 297 296 295 295 295 295 295 295 296 296 295 296 297 297 298 298 299 299 299 298 299 300 299 299 298 297
284 281 276 282 285 285 284 284 284 286 284 283 283 281 285 278 280 279 276 272 273 264 263 264 270 274 277 281 283 287 287 285 284 285 286 287 287 286 285 286 286 287 288 288 289 290 291 292 291 292 292 292 291 291 293 295 296 297 296 297 297 297 296 296 296 295 296 295 295 295 295 295 295 296 297 297 298 299 299 298 298 299 299 298 297 296
284 282 279 280 282 281 281 282 283 285 288 287 286 283 286 280 277 275 275 275 268 272 267 263 273 276 282 283 285 286 287 285 284 285 285 285 286 286 285 285 285 286 287 287 288 288 290 290 290 290 289 288 290 291 292 294 294 294 296 297 296 296 297 297 296 296 295 295 295 295 295 294 294 295 296 296 297 297 298 298 298 298 297 297 297 295
284 281 282 277 282 285 285 286 283 285 284 285 284 283 285 282 280 274 272 274 271 274 273 269 268 277 282 284 284 283 283 283 281 282 284 283 283 283 284 285 286 286 288 289 290 290 289 289 290 289 289 290 290 291 291 291 294 295 295 295 296 296 297 297 297 296 296 295 294 294 294 293 293 293 293 294 295 295 296 297 296 296 296 296 295 293
290 280 279 278 278 281 283 282 283 282 286 286 284 281 283 284 282 279 274 276 279 273 274 269 269 278 280 285 284 284 281 280 282 281 284 288 288 288 289 289 287 288 288 289 288 288 288 286 285 286 289 289 289 290 291 293 294 294 295 296 295 296 297 296 296 295 294 294 293 293 291 292 292 291 291 292 293 293 294 295 294 293 295 295 295 293
284 280 284 273 272 278 279 284 282 283 285 282 282 281 284 282 280 278 276 274 275 276 278 276 274 279 283 282 283 284 284 287 289 286 284 287 289 288 287 287 287 287 289 290 290 289 288 288 288 289 289 289 290 290 290 292 293 293 295 294 295 296 296 295 293 293 293 292 292 290 290 290 290 290 290 291 291 291 292 292 293 293 293 294 294 293
287 282 282 276 276 274 273 274 279 283 284 282 279 281 285 286 281 281 277 276 275 275 278 274 277 282 285 283 286 286 284 288 285 284 284 285 289 288 289 289 290 291 292 291 291 292 293 292 289 288 288 289 290 290 290 291 292 292 293 294 294 295 294 293 290 292 293 292 290 290 289 289 288 289 290 290 290 290 290 291 292 292 291 293 294 293
280 282 285 285 283 281 283 284 283 285 282 282 282 284 284 284 284 283 277 274 279 279 278 283 284 282 284 285 285 288 283 286 288 285 285 286 286 286 285 287 288 289 290 291 290 291 290 291 293 292 291 291 289 288 289 290 291 292 292 293 293 293 293 291 290 291 291 290 289 290 289 289 289 289 289 289 290 290 290 290 290 291 291 291 291 292
278 283 284 285 286 286 286 281 282 288 285 286 283 283 284 284 283 283 282 282 282 278 275 284 284 283 284 283 285 284 284 283 285 285 287 287 288 289 291 289 291 289 289 289 289 290 292 292 292 292 291 289 287 287 288 290 291 291 291 293 293 290 290 290 289 290 290 290 290 290 291 289 288 288 289 289 289 289 289 290 290 290 291 290 290 291
284 283 286 283 285 286 281 282 284 286 286 286 285 285 283 284 283 283 284 286 283 283 282 283 283 283 287 287 287 287 287 289 289 290 289 288 288 288 289 289 290 290 291 290 292 291 291 292 293 292 289 287 288 288 289 289 289 288 290 291 292 289 290 288 289 290 290 290 290 291 290 289 288 288 288 288 289 289 289 289 290 290 290 290 290 291
286 282 284 284 284 284 281 282 283 285 284 283 285 285 286 285 284 286 287 288 285 285 288 282 284 285 289 287 289 290 290 290 291 288 288 288 290 291 289 288 288 290 291 291 292 292 291 292 291 289 288 290 291 291 290 289 289 289 289 291 290 289 289 288 289 290 290 290 291 290 289 288 288 288 288 288 288 289 289 289 289 289 289 290 290 290
287 280 286 280 279 282 282 281 282 282 283 282 281 284 284 285 286 286 288 288 287 286 287 283 281 283 287 287 288 291 290 288 288 287 290 290 291 290 289 289 289 290 291 291 292 292 292 290 288 287 289 291 292 291 290 289 290 288 288 289 289 289 288 288 289 289 290 291 291 290 289 288 288 287 288 288 288 288 288 288 288 288 288 288 289 289
286 280 278 278 278 277 279 281 280 279 280 280 279 281 283 283 283 285 285 287 285 284 286 283 283 285 289 289 289 291 287 289 290 290 291 291 291 289 289 290 290 290 291 292 292 292 291 289 288 289 291 291 290 288 288 289 289 287 288 288 288 288 286 287 288 290 290 290 290 289 288 287 287 287 288 287 288 287 288 287 287 287 287 287 287 288
285 281 280 277 278 278 277 278 278 278 279 277 280 282 284 286 287 288 287 286 288 289 285 283 285 291 290 287 288 288 287 289 289 291 291 291 291 290 290 291 291 291 291 292 292 291 289 290 291 291 290 287 288 288 288 287 286 288 288 288 288 287 286 287 288 288 289 289 288 288 286 287 287 288 287 287 287 287 287 287 287 287 287 287 288 287
283 285 281 280 279 274 271 275 277 278 273 277 288 290 287 285 286 284 285 287 288 288 288 290 291 292 291 286 287 290 289 289 293 294 294 294 293 291 290 290 290 291 290 289 288 289 290 290 289 289 287 287 287 286 286 285 286 287 286 286 285 286 286 286 287 286 288 287 287 287 286 286 287 287 288 287 286 286 286 286 287 287 287 287 286 287
285 284 280 275 277 275 272 276 275 273 276 286 289 287 289 289 288 287 288 289 289 289 289 289 289 289 290 290 291 292 292 290 289 291 291 289 290 291 292 291 290 290 290 290 289 288 288 289 288 286 285 285 285 284 285 285 284 285 285 284 286 285 285 285 286 285 286 286 286 285 286 286 286 287 287 286 286 286 286 286 287 287 287 287 287 287
284 285 276 276 274 273 271 273 273 275 280 281 284 284 285 287 287 286 285 287 285 286 288 288 290 291 292 292 292 290 289 288 287 289 290 287 288 292 291 291 291 289 290 291 290 290 288 286 287 286 286 286 286 284 283 284 283 284 284 284 285 284 284 285 284 285 284 285 285 286 286 285 286 286 286 286 285 285 286 286 286 286 286 286 286 287
289 286 283 281 276 279 274 277 277 279 280 282 285 285 286 285 283 284 282 285 289 289 288 290 291 292 292 292 292 292 288 287 288 293 287 289 291 290 292 292 292 291 290 290 289 288 286 284 286 286 286 285 283 284 285 284 283 283 283 285 283 284 284 284 284 284 284 285 285 285 285 285 286 286 286 286 285 286 286 286 286 286 286 285 286 286
285 286 283 285 278 279 275 271 273 275 276 279 285 285 287 288 289 289 287 285 288 290 291 290 290 291 291 290 290 290 287 286 288 292 288 288 289 288 286 287 285 286 286 285 286 286 287 285 284 284 285 285 283 284 282 281 283 285 284 284 283 283 284 284 285 285 284 285 285 285 284 285 285 286 286 285 286 286 287 286 286 286 286 286 286 286
284 282 282 285 281 280 277 277 276 275 277 285 286 287 287 287 289 286 284 282 286 288 289 290 290 290 290 290 290 288 287 285 288 292 288 285 286 284 286 287 286 286 286 286 288 289 286 285 284 284 283 284 285 284 282 281 283 285 286 285 284 284 285 286 286 286 286 286 286 285 284 284 284 285 286 286 287 287 286 286 287 286 285 285 286 286
284 282 282 282 279 280 280 278 277 278 277 284 286 284 284 285 290 288 277 278 288 285 288 289 289 290 291 290 289 286 286 285 288 292 286 283 286 285 286 289 288 287 287 284 285 284 284 283 285 285 284 285 285 282 281 281 283 283 284 284 282 285 286 286 285 285 284 285 285 284 284 283 284 285 286 286 287 286 286 286 285 285 285 285 285 285
284 282 283 282 283 283 283 279 281 280 284 281 280 282 284 289 290 282 278 283 284 286 290 290 289 291 291 288 288 287 289 291 289 286 283 282 287 287 285 285 285 285 288 286 286 283 283 283 284 286 286 285 283 282 281 282 285 285 283 282 283 285 286 285 284 284 284 284 284 284 284 283 284 285 286 286 286 286 285 285 285 285 284 284 284 283
283 284 283 283 283 282 283 282 282 283 285 284 283 285 286 288 282 280 286 283 286 287 283 286 289 287 287 287 287 290 288 283 283 284 285 284 285 285 284 284 284 285 283 284 284 283 285 284 284 284 284 283 283 282 281 282 283 283 282 282 284 285 284 283 282 283 282 283 283 283 283 284 284 284 285 285 284 284 285 285 284 284 284 283 283 283
285 284 280 283 284 283 281 281 281 278 287 288 288 287 287 284 285 286 284 284 282 283 284 285 286 286 286 287 285 284 286 286 286 287 285 284 284 285 284 284 285 284 285 285 287 285 283 285 284 284 283 283 283 283 281 282 282 281 281 283 285 284 282 282 282 282 282 282 283 283 284 284 283 284 284 284 284 283 284 284 283 283 282 282 282 282
289 285 284 285 287 282 282 280 280 285 288 289 292 288 287 287 288 286 286 287 286 284 285 285 285 284 283 285 286 284 284 284 285 284 285 285 284 283 283 283 283 283 283 282 282 282 280 283 283 284 283 283 283 282 281 282 282 281 281 285 284 281 280 279 280 279 281 282 282 282 282 282 282 282 282 282 283 282 283 283 282 282 282 281 282 282
288 288 289 285 288 286 284 286 289 287 288 287 286 287 286 287 285 283 287 286 287 286 284 285 286 285 284 285 285 284 286 287 286 285 285 284 284 284 285 284 283 284 284 284 284 283 282 283 283 283 284 286 285 284 281 279 282 281 284 285 283 282 280 281 280 280 280 281 281 281 282 281 281 280 280 280 280 281 282 282 280 281 280 279 280 280
286 286 286 287 286 287 288 287 288 286 286 285 286 285 285 285 285 285 288 288 286 285 285 286 285 286 286 285 286 285 285 284 285 285 284 284 284 284 283 284 285 285 285 286 286 285 283 282 281 283 285 287 286 285 284 281 280 282 286 284 283 281 280 279 279 280 281 281 281 281 280 280 280 279 279 279 279 281 282 282 282 281 281 279 280 280
287 287 287 286 287 288 284 286 286 287 285 285 286 286 285 284 284 285 285 285 285 285 286 286 286 285 285 285 284 284 284 284 284 284 284 285 286 286 285 286 285 285 285 285 286 285 285 284 285 286 285 285 286 286 285 284 282 282 282 282 282 280 279 278 278 279 280 280 281 280 278 278 280 280 279 275 277 278 280 280 280 280 280 279 279 279
286 287 287 285 287 287 285 284 285 285 284 284 284 283 283 284 283 282 283 283 283 284 285 285 286 284 285 284 284 285 283 283 283 283 283 283 284 284 284 285 284 284 284 284 284 283 281 281 281 282 282 283 285 285 284 283 282 282 280 278 279 278 277 278 278 279 279 280 280 280 278 279 278 279 279 278 278 278 278 277 278 279 280 280 280 279
286 289 284 286 285 285 286 286 286 286 286 284 282 282 283 283 283 281 281 281 282 282 283 283 283 283 282 281 282 283 282 281 281 281 282 282 282 282 282 282 282 282 282 282 282 280 280 279 279 280 279 281 282 282 282 281 281 281 280 279 276 275 275 277 278 278 278 278 278 279 277 278 277 277 278 278 277 276 277 279 279 279 279 279 279 281
286 285 286 286 283 283 283 285 287 285 283 285 281 280 280 282 281 279 279 279 279 280 281 282 282 282 280 280 279 279 279 279 279 280 280 281 281 281 280 280 280 280 280 280 280 279 278 278 278 278 279 280 280 280 280 280 281 281 280 278 275 274 276 276 277 277 277 278 277 278 277 276 276 275 276 276 276 276 275 276 279 279 278 279 280 282
285 286 286 285 286 284 286 287 287 287 285 283 281 279 279 281 281 279 278 277 278 279 281 280 280 279 279 278 276 275 275 275 276 278 277 278 278 279 279 278 278 278 278 279 278 277 277 277 278 277 277 279 279 279 279 278 279 279 279 278 277 276 275 274 275 276 277 277 278 278 277 276 276 276 273 274 274 272 275 275 274 281 283 282 281 282
Wind_Speed
1 6 7 10 10 9 7 6 4 3 7 5 4 4 3 5 1 2 1 1 0 2 3 4 5 6 11 10 10 11 2 4 6 9 10 9 9 10 10 10 10 9 15 3 4 7 8 8 7 6 6 6 5 6 7 8 9 10 11 9 10 7 7 8 7 6 6 5 3 1 4 5 4 4 3 4 3 3 3 2 4 6 5 6 8 7
4 6 9 6 9 12 9 7 7 8 4 7 6 5 1 1 3 1 1 1 2 2 1 1 1 8 12 11 12 9 4 10 11 11 11 13 11 11 11 13 11 12 5 6 6 5 5 5 6 6 7 6 8 9 9 12 12 10 8 10 9 7 7 8 9 8 7 4 5 5 5 4 4 4 4 5 3 3 2 2 2 3 4 5 6 8
3 9 9 8 3 6 6 4 4 5 5 3 7 5 4 2 1 1 0 1 2 1 4 2 3 9 11 11 11 8 11 9 8 9 11 9 11 11 11 11 10 7 11 6 8 6 5 6 6 6 7 8 10 9 10 8 6 7 8 8 8 8 8 7 7 7 6 3 3 4 4 6 3 1 1 1 1 2 3 3 3 3 3 5 5 7
4 6 9 3 7 8 3 4 7 7 5 6 5 4 6 2 3 1 2 1 3 1 1 1 4 10 8 7 12 14 9 6 5 7 10 8 13 14 12 7 7 9 11 11 10 9 5 5 5 4 6 8 6 6 6 7 10 9 8 8 8 8 7 7 6 7 4 4 3 3 4 2 3 3 2 2 0 2 2 5 3 3 4 4 4 6
7 1 1 8 7 9 6 3 7 6 3 1 4 4 4 3 2 2 3 1 1 1 2 1 3 8 3 4 5 3 2 3 6 4 8 10 10 11 7 5 6 10 9 10 8 8 6 5 8 10 8 4 7 8 10 10 10 9 11 9 9 8 8 6 7 7 6 6 4 5 4 3 2 2 2 3 5 5 4 4 4 5 3 3 4 4
2 1 2 6 5 4 7 3 5 8 2 1 3 5 6 5 6 1 1 3 3 2 3 2 3 4 3 6 9 10 7 6 2 3 9 9 7 5 8 10 8 9 10 10 9 10 8 7 5 4 5 7 7 9 10 9 8 7 7 7 7 6 6 7 8 8 8 8 8 7 6 4 3 5 5 9 10 8 7 7 3 3 5 4 4 4
2 1 2 6 6 5 6 5 4 4 6 3 3 3 4 8 7 7 4 3 0 1 2 2 3 6 6 5 5 4 7 12 10 5 12 8 4 5 6 7 9 10 7 5 6 5 5 6 5 5 7 8 9 9 5 5 6 6 6 7 8 8 7 7 7 8 8 7 7 9 9 8 9 9 7 4 3 5 4 3 5 5 4 5 6 5
1 2 5 4 6 5 5 4 4 7 7 4 0 6 8 9 8 5 5 2 0 1 3 4 3 2 7 9 5 4 5 9 10 12 12 7 1 3 6 7 8 8 5 4 5 7 6 6 9 11 9 8 9 5 5 6 5 8 9 8 8 7 7 7 7 8 8 9 7 7 6 7 8 9 7 5 5 3 3 4 6 5 5 4 5 6
2 3 3 3 2 3 7 3 5 4 6 2 2 5 4 6 5 6 6 5 1 1 6 2 0 0 5 9 3 2 3 5 8 11 10 8 7 6 8 8 8 7 5 4 5 6 7 7 8 5 6 4 4 6 8 8 7 5 5 6 5 7 7 7 8 9 8 7 8 8 8 8 7 6 5 4 4 4 4 6 5 6 5 5 5 6
2 2 4 6 6 6 2 0 3 4 5 1 6 8 8 7 7 5 4 4 0 1 6 3 2 3 8 7 7 3 1 7 11 9 8 8 8 9 7 5 4 3 4 4 5 4 4 4 3 3 2 4 6 4 4 4 4 5 5 7 7 7 7 6 7 8 7 6 7 8 8 9 7 5 4 4 5 5 4 6 6 6 6 5 5 5
1 4 4 3 3 2 5 2 2 1 1 9 4 9 7 9 5 3 7 2 3 1 7 5 2 2 5 5 8 3 5 7 4 5 4 6 7 6 5 5 4 3 3 1 3 3 3 2 4 4 5 5 3 4 4 4 5 5 6 7 8 8 6 6 8 7 8 7 7 8 8 9 8 7 6 6 5 5 5 6 6 6 6 5 5 5
2 2 1 1 3 3 3 5 5 3 4 6 4 4 7 5 7 5 5 5 1 6 5 1 1 1 6 5 7 8 5 4 3 4 5 6 7 7 5 4 4 4 3 3 1 1 0 1 1 3 5 5 5 4 5 4 4 6 6 6 7 5 6 6 6 7 7 7 8 7 7 9 8 8 7 9 8 7 8 7 7 5 5 6 5 5
2 2 1 5 3 5 3 9 5 2 3 6 8 8 7 2 4 2 3 2 5 6 1 1 2 2 10 9 6 8 10 7 8 8 7 5 7 7 5 4 4 4 4 4 1 0 2 4 4 5 4 4 5 7 7 7 7 6 6 7 8 9 7 7 6 8 8 8 8 8 8 7 7 8 8 8 7 6 7 6 7 6 7 5 6 6
3 2 2 3 2 3 5 11 2 2 1 4 8 7 6 2 1 3 3 1 6 6 3 1 0 4 4 7 14 17 10 3 5 7 6 5 7 7 6 5 4 5 4 4 4 3 3 3 4 4 5 5 6 6 7 7 7 6 6 7 8 9 7 6 6 7 8 9 8 8 8 7 7 7 7 7 7 6 6 6 7 7 7 7 8 7
5 3 7 6 3 1 1 2 10 8 8 6 0 7 8 8 5 4 4 5 6 5 2 3 1 7 3 1 1 7 8 7 6 4 4 6 8 7 6 6 6 5 5 4 5 5 3 2 4 4 5 5 5 5 5 5 6 6 7 8 8 7 7 7 8 7 9 8 7 7 7 7 6 7 7 7 6 6 6 6 7 7 6 8 8 8
7 3 3 3 1 0 6 0 3 6 5 0 3 5 5 6 6 1 4 2 0 1 1 1 6 3 4 3 9 5 7 6 7 3 2 5 4 3 4 5 4 4 4 4 5 7 6 3 4 4 4 4 4 5 5 6 7 7 8 7 9 9 8 8 8 8 9 8 7 6 7 8 8 7 6 6 6 6 6 7 8 8 8 8 8 7
2 4 2 7 3 2 0 0 0 2 7 4 4 4 4 2 9 6 1 1 1 3 7 2 8 7 8 6 10 7 5 8 4 4 2 4 5 4 5 5 5 4 4 4 5 6 6 4 4 5 4 4 4 5 7 7 8 9 8 8 8 7 6 8 9 9 7 8 7 8 8 8 8 8 8 8 7 7 7 7 7 7 8 8 8 7
9 3 2 3 1 1 0 0 2 4 3 9 2 8 2 2 5 5 4 2 3 3 7 2 7 6 3 7 4 3 4 9 8 8 7 5 4 5 6 6 4 5 5 4 5 6 6 5 6 5 4 5 6 6 6 6 6 6 8 9 9 8 10 9 8 8 8 9 9 8 9 9 9 9 9 8 7 6 7 6 6 6 7 8 7 7
7 3 0 1 0 5 3 0 3 2 3 3 3 3 6 4 2 1 4 2 1 2 5 4 2 5 7 7 3 1 4 6 9 8 6 7 5 6 4 0 4 5 5 5 5 6 7 6 7 7 6 5 5 5 5 5 5 5 6 7 9 12 11 10 8 8 7 8 8 8 10 10 10 8 8 7 7 6 7 8 7 8 8 7 7 8
1 5 2 1 2 1 2 3 9 3 2 1 2 3 0 3 2 4 6 4 5 4 2 7 3 7 7 7 9 6 6 5 1 0 3 7 9 7 0 1 2 5 5 6 6 6 7 6 6 6 7 7 7 6 5 5 5 7 7 7 8 6 5 6 8 9 10 10 9 8 7 8 8 8 8 8 8 9 9 8 8 8 8 9 7 7
3 1 4 1 2 2 3 4 10 11 9 1 2 3 0 1 2 5 1 3 4 5 5 1 6 6 7 6 7 10 9 8 4 4 5 6 6 6 5 4 4 5 5 6 6 5 5 5 4 5 6 6 4 4 4 5 7 7 6 8 7 9 9 9 10 9 10 8 10 9 11 10 8 9 9 8 9 9 9 8 8 8 8 6 9 7
3 2 8 3 2 5 6 2 1 5 5 8 11 11 12 9 5 5 6 2 2 3 4 3 10 5 8 4 9 8 9 7 7 5 5 5 6 6 5 4 4 3 4 6 5 4 4 4 4 5 7 3 2 4 5 5 4 5 7 7 6 7 9 9 10 11 10 10 10 11 11 9 7 9 8 9 9 10 9 8 8 7 6 8 8 8
5 4 9 5 7 8 2 1 2 0 2 1 2 6 6 2 6 4 6 4 2 2 5 2 0 11 7 5 5 5 3 5 3 4 4 3 3 3 3 3 4 5 5 4 5 5 4 4 5 7 2 1 3 4 5 5 7 7 7 6 7 8 12 9 9 8 8 9 10 12 10 8 9 8 9 10 10 10 10 9 8 7 9 9 7 7
6 4 5 3 2 3 3 2 2 1 1 3 4 1 5 8 6 7 3 7 9 2 1 1 2 9 4 0 3 4 4 5 3 3 2 1 2 1 2 2 2 4 4 5 5 5 6 4 4 4 3 2 2 4 5 7 6 6 6 7 6 11 12 8 7 6 7 7 9 8 8 10 8 9 9 10 10 10 9 9 8 7 9 9 7 9
5 3 9 3 2 2 4 2 2 2 1 5 3 4 3 3 3 2 5 1 1 9 9 8 10 8 3 3 3 1 2 2 2 3 4 3 2 1 3 5 5 5 7 7 5 2 2 2 4 4 3 4 4 4 5 7 7 6 7 6 8 10 7 6 5 6 7 7 9 7 8 9 7 9 10 11 8 10 8 9 8 7 8 8 8 9
4 4 8 7 11 10 7 7 12 15 14 3 0 4 7 12 8 6 3 1 5 4 8 5 10 5 2 2 2 1 1 1 3 5 5 6 0 4 5 5 7 8 8 8 9 10 11 10 7 6 5 5 6 5 4 6 7 6 6 8 7 8 6 5 4 6 7 6 7 7 8 8 7 10 10 9 8 9 9 9 8 8 7 7 10 9
3 3 7 11 14 15 15 9 3 10 6 7 7 10 6 5 7 5 6 5 12 5 8 13 16 3 1 3 3 5 2 5 4 3 4 4 3 2 3 5 5 5 6 7 7 8 8 9 10 7 7 5 3 3 5 7 7 6 6 7 6 6 5 5 4 5 6 6 6 7 9 9 9 9 8 9 10 8 8 8 9 8 9 8 9 9
4 5 10 11 15 17 11 4 5 11 11 11 9 10 10 10 9 9 10 14 6 11 8 15 11 9 11 4 7 5 5 4 6 6 7 4 4 5 7 6 6 6 7 7 7 9 10 10 9 9 6 2 4 5 6 6 7 6 5 8 6 4 4 4 4 6 7 6 8 10 11 8 7 8 9 8 8 8 8 8 8 9 9 7 9 10
6 9 10 8 13 11 2 6 7 7 10 11 14 13 13 14 11 15 15 16 10 12 20 7 8 11 14 10 9 9 6 6 6 7 4 3 5 6 7 8 7 8 9 9 10 8 8 9 8 7 5 4 3 5 7 7 5 4 6 7 7 4 5 4 6 7 7 7 10 12 8 6 7 7 7 7 7 8 9 9 9 8 8 9 9 9
4 7 7 8 13 10 2 4 5 9 5 4 10 13 16 16 17 19 19 19 16 16 17 5 10 15 17 8 12 10 7 7 6 1 3 5 7 9 8 7 8 10 10 10 11 10 8 8 6 5 5 7 7 7 6 5 5 6 6 8 5 5 5 5 7 7 6 8 11 8 6 7 6 7 6 7 9 9 8 8 8 8 9 9 9 9
5 5 4 3 5 8 7 1 1 6 8 7 5 9 12 14 17 20 20 20 15 15 13 2 3 13 7 8 10 8 6 3 3 5 8 9 10 9 8 9 9 10 11 11 10 11 9 6 4 4 6 8 8 7 5 6 6 5 6 6 5 6 4 5 6 6 7 10 9 7 6 6 6 5 8 8 7 6 7 8 7 8 8 8 8 9
4 4 2 3 4 5 4 8 6 2 1 2 3 6 10 13 15 17 18 13 8 12 15 7 9 18 6 10 6 8 5 6 9 11 10 11 10 9 10 12 11 11 11 12 11 9 9 7 6 7 9 8 6 5 5 6 5 4 6 5 5 5 3 4 5 7 8 9 7 6 5 5 5 7 8 6 7 7 7 7 7 8 8 8 8 8
7 5 5 3 6 7 2 5 8 6 2 3 8 12 21 21 20 15 11 7 13 17 14 12 20 20 6 8 7 4 6 8 9 10 11 11 11 10 11 12 11 10 11 11 10 9 7 8 9 8 7 5 6 5 6 5 4 5 5 4 5 1 2 4 6 6 7 6 5 5 4 5 6 7 7 6 6 6 6 7 8 8 8 10 9 6
5 8 7 4 7 4 1 6 5 7 9 14 13 21 19 19 19 15 10 16 17 12 12 16 16 12 8 4 8 10 9 10 14 14 10 11 10 8 10 9 10 9 8 7 7 8 9 7 8 7 6 5 5 5 4 2 3 4 3 3 3 3 4 4 5 5 6 5 4 4 4 4 5 7 7 5 5 5 7 7 10 9 8 7 6 8
10 8 7 3 4 4 2 6 5 9 14 9 8 3 11 15 13 18 20 20 15 13 13 12 11 12 11 9 12 15 12 7 6 10 9 6 7 7 10 10 9 8 9 8 8 9 9 9 6 5 5 5 4 2 2 3 2 4 4 3 4 3 4 4 4 4 4 5 4 4 4 5 5 7 7 5 5 6 8 8 8 8 8 7 9 10
10 10 4 1 4 5 3 3 7 10 7 3 1 3 2 6 10 11 15 11 3 6 10 13 16 16 15 14 10 7 6 5 5 8 11 3 7 10 9 9 8 7 8 9 8 8 6 6 6 4 2 1 0 1 1 2 1 1 3 1 3 2 2 2 3 4 4 5 4 5 5 4 5 6 6 5 5 7 8 8 9 9 7 7 8 8
13 8 7 7 4 9 6 9 10 4 6 1 4 3 10 12 9 14 13 14 12 11 14 17 20 19 17 13 9 9 1 3 7 14 3 7 11 10 11 10 10 9 7 7 6 6 4 3 2 1 0 0 0 1 1 1 1 1 1 0 0 0 0 1 3 4 4 5 4 4 4 4 5 6 6 5 6 8 8 8 9 8 6 7 8 9
5 13 7 11 5 7 7 3 1 3 11 7 10 4 2 4 9 11 10 9 6 13 15 15 15 17 14 10 11 9 2 4 11 15 3 8 6 4 5 6 5 5 5 4 1 1 0 1 0 0 0 1 1 0 1 1 1 1 3 3 2 2 2 1 4 3 4 5 4 4 4 4 4 6 6 6 8 9 8 8 7 8 7 9 9 10
4 3 2 12 4 6 5 8 7 8 9 9 11 7 2 6 12 7 6 11 5 10 12 14 15 12 10 13 15 1 1 7 12 13 5 2 3 3 3 3 2 2 1 0 2 2 2 3 2 2 1 0 2 3 2 2 2 4 5 5 5 4 5 6 5 5 5 6 5 4 4 4 4 6 7 7 9 8 8 8 9 7 5 8 8 10
5 1 3 5 4 5 9 9 11 3 3 6 9 7 4 6 11 9 6 7 9 3 8 10 13 14 15 13 9 5 8 7 12 11 1 1 1 0 1 1 1 2 2 3 1 0 1 1 1 1 3 4 3 3 3 2 3 4 4 5 4 5 5 5 5 5 4 5 5 4 5 4 5 6 7 9 8 7 8 6 6 6 7 7 7 8
3 0 3 11 10 8 8 5 1 4 3 3 5 3 6 6 10 9 16 4 2 8 11 12 13 15 13 9 7 7 12 10 2 0 1 2 1 3 2 1 1 0 0 1 1 2 1 0 1 0 1 1 2 2 2 3 5 5 4 4 5 5 5 4 4 4 5 5 5 5 5 5 5 7 8 7 8 7 6 6 7 6 6 8 7 7
1 3 1 2 9 11 10 12 10 3 4 7 1 5 5 6 8 11 4 1 8 8 4 6 10 8 6 8 9 10 6 1 0 0 4 4 2 0 2 2 3 4 1 0 1 3 4 4 4 3 3 2 2 1 2 3 4 4 4 4 4 5 4 4 4 4 5 5 6 6 6 6 6 6 7 6 6 7 8 7 6 7 7 7 7 8
10 8 7 9 5 2 1 5 6 12 3 4 9 2 2 5 4 3 4 0 1 1 3 1 4 4 4 7 3 3 2 2 4 3 2 2 3 4 4 5 5 5 5 5 7 8 6 6 5 4 4 3 3 1 1 2 3 4 4 5 6 4 4 4 4 4 5 6 7 7 7 6 6 8 5 6 6 7 9 7 6 7 6 7 7 9
8 10 5 6 7 11 12 12 9 3 5 4 7 10 6 7 1 2 4 4 1 1 2 3 3 0 0 4 6 4 2 3 3 3 3 4 5 5 5 5 5 5 5 3 1 3 3 4 3 5 5 3 1 1 0 0 3 4 5 8 5 3 3 4 4 5 6 7 7 8 8 6 7 7 6 6 6 6 8 8 6 7 7 7 7 8
5 12 8 11 6 9 6 6 1 1 4 1 3 3 2 4 3 2 4 4 4 3 0 5 3 4 3 5 5 4 3 3 3 3 4 4 5 5 6 6 5 5 5 5 5 5 5 5 6 6 8 6 2 2 1 1 1 5 7 6 4 5 5 6 6 6 7 8 8 8 8 7 7 7 6 6 5 7 8 8 6 8 6 6 7 8
4 0 1 4 3 1 3 2 4 4 4 4 7 5 6 6 8 5 6 9 8 4 5 4 2 5 6 5 5 5 6 5 7 7 6 6 5 5 5 6 7 6 5 5 5 7 5 5 5 5 7 9 3 2 1 1 1 5 8 7 7 6 5 6 7 8 9 8 8 9 7 8 8 6 6 6 6 7 7 8 7 7 7 6 7 7
1 0 1 4 1 7 7 4 3 4 3 5 7 6 8 9 8 7 11 9 7 8 9 9 8 8 7 9 9 8 9 8 8 8 7 7 8 7 8 6 7 6 6 7 6 6 7 6 7 8 7 9 8 5 4 4 4 5 6 7 7 6 5 5 6 8 9 9 9 8 6 7 8 7 6 5 6 6 7 6 6 7 7 6 7 7
4 3 2 1 2 5 2 4 5 6 7 5 5 5 8 8 10 11 8 7 7 8 9 8 7 10 8 10 7 9 8 9 9 9 8 8 7 7 7 7 8 8 7 5 5 5 5 5 5 6 6 8 9 7 6 5 4 5 5 5 5 5 5 6 6 8 9 9 8 8 7 8 8 8 8 7 6 7 7 6 6 7 9 8 8 8
2 3 4 3 4 4 7 5 6 7 7 6 6 7 5 4 6 8 7 8 9 10 9 9 10 8 9 7 7 7 9 8 8 7 7 7 7 7 7 7 7 6 8 8 8 6 7 6 7 6 6 8 7 7 8 8 7 5 4 4 5 5 5 8 8 8 9 8 7 8 6 7 7 7 7 8 6 6 7 7 6 7 8 6 6 7
4 4 1 3 4 5 6 8 9 9 4 3 3 3 3 3 6 8 7 10 9 9 6 7 7 7 8 8 7 6 7 4 4 4 4 4 5 6 7 8 7 7 7 6 6 7 7 7 6 7 8 8 7 8 9 9 9 8 5 5 4 4 5 7 8 8 9 7 7 7 6 6 6 6 7 7 7 8 7 7 9 8 7 8 7 10
5 4 6 6 5 5 2 7 1 5 8 4 3 2 3 4 2 9 10 7 6 7 5 6 5 5 7 8 7 6 5 3 3 2 1 2 3 4 4 5 8 9 9 8 8 7 6 6 7 7 8 9 7 7 7 8 7 8 7 6 6 5 6 5 7 8 8 6 6 6 6 7 7 6 6 7 7 7 8 8 6 8 11 12 9 8
Wind_Direction
108 140 177 193 191 183 192 180 166 186 166 123 78 95 164 163 276 275 280 275 107 99 240 230 266 275 277 267 269 275 306 300 287 278 266 262 259 254 249 244 240 239 243 263 217 232 226 221 213 205 191 191 180 184 183 185 190 187 184 173 190 178 159 158 157 160 157 146 123 102 199 205 191 204 218 231 229 235 239 238 225 202 199 185 190 193
71 160 223 201 189 184 178 131 110 72 74 149 144 135 152 157 170 212 125 354 323 152 279 29 293 268 261 273 271 275 305 267 251 253 258 256 253 253 249 253 246 246 294 291 279 262 257 234 211 189 185 173 173 199 186 191 193 186 174 183 180 164 169 175 175 169 172 168 173 159 184 169 173 193 203 225 234 241 278 276 244 232 191 190 191 183
153 197 217 205 128 82 98 99 68 122 119 70 152 158 114 233 231 298 295 350 330 95 266 19 345 277 272 265 267 254 246 243 228 222 238 241 255 252 250 249 260 277 266 277 264 266 238 227 212 191 193 196 200 185 189 189 169 176 181 187 173 175 171 174 169 161 172 147 155 149 172 172 171 257 203 199 269 217 245 251 241 237 211 192 192 184
174 275 236 179 143 111 64 100 101 74 59 113 102 124 188 217 112 226 277 2 2 83 302 330 321 279 279 279 261 254 237 255 253 239 246 230 243 247 245 239 242 250 257 260 253 250 240 226 219 202 200 202 186 170 177 177 183 183 186 182 176 176 171 165 171 166 143 127 117 84 126 128 127 176 164 155 36 254 267 247 230 241 221 194 198 186
189 231 27 124 160 144 139 139 131 130 121 358 118 127 122 155 216 149 197 109 338 41 59 27 316 297 328 328 321 311 324 276 274 285 272 261 245 255 277 288 231 240 238 246 256 258 250 220 213 205 205 167 185 187 187 186 188 187 188 183 175 170 172 166 163 161 142 121 96 87 64 64 62 48 119 206 240 227 231 255 236 228 217 201 190 204
274 282 119 96 138 116 120 147 192 132 75 4 227 168 190 166 131 78 50 98 22 346 353 44 332 310 299 287 248 278 340 315 267 318 276 252 255 257 256 252 258 250 238 229 231 230 230 222 225 220 189 186 196 197 199 192 189 176 176 168 165 159 163 170 171 163 158 165 159 153 150 163 189 211 192 210 216 213 216 221 230 226 213 201 197 198
194 2 132 153 139 138 142 168 212 146 158 121 234 154 150 137 122 119 110 79 71 161 342 18 172 266 323 296 283 316 331 304 303 273 271 271 230 248 248 240 240 240 245 239 248 250 232 229 208 215 202 199 199 208 171 178 185 179 170 170 167 168 173 174 173 168 165 168 177 183 189 192 199 211 225 223 223 214 229 231 237 239 230 205 198 206
92 56 74 70 100 116 138 179 220 145 123 200 243 120 117 110 127 151 117 122 157 252 297 45 101 210 304 283 257 323 311 294 298 288 281 279 81 254 243 251 258 265 260 223 231 227 224 213 201 206 204 195 204 167 163 180 178 182 178 170 172 171 175 179 170 176 181 177 180 185 197 203 210 213 221 199 212 192 183 219 237 244 245 232 215 208
120 155 131 111 78 103 171 213 170 130 124 219 194 116 104 123 130 113 91 100 115 42 276 337 275 281 250 268 309 348 332 308 287 271 277 309 294 261 259 259 257 265 268 240 232 215 210 209 214 211 201 197 160 172 185 188 183 170 160 163 160 173 176 182 179 179 188 183 180 187 193 212 222 219 219 187 189 195 198 220 230 234 237 230 224 216
353 163 215 151 136 184 229 1 150 115 92 253 132 95 94 81 73 87 96 78 357 75 268 225 190 208 278 275 322 337 249 262 255 264 286 282 288 292 290 284 286 269 260 246 241 236 222 220 211 199 154 170 197 180 165 152 145 157 156 166 173 186 184 181 184 183 186 184 175 189 200 211 216 209 208 176 195 200 197 227 227 231 232 231 227 220
253 312 185 83 181 183 130 46 148 294 136 133 100 75 40 38 25 31 63 82 58 324 251 242 308 161 292 263 230 173 212 206 257 302 280 295 312 303 270 271 292 318 331 305 267 272 267 250 188 160 179 186 164 164 162 162 165 164 170 176 186 195 181 181 186 183 189 189 189 199 201 208 209 204 198 200 213 200 207 223 229 226 231 228 229 216
12 351 46 271 77 101 104 81 21 60 103 126 105 130 75 1 11 29 347 32 131 269 266 262 220 141 197 290 277 242 268 221 191 255 278 295 296 293 300 317 307 311 312 321 331 285 274 106 131 158 176 179 181 159 167 171 167 173 179 178 189 193 191 187 187 185 194 193 201 206 203 208 208 199 202 206 211 201 214 215 226 224 234 232 228 223
28 85 263 331 202 129 121 87 5 12 356 82 90 84 117 236 37 285 12 264 219 210 212 342 173 331 241 228 254 283 268 253 218 219 227 249 295 307 314 299 293 294 316 316 310 276 232 193 180 189 194 173 177 190 184 181 179 177 178 183 189 204 194 194 184 191 196 200 204 203 206 210 204 208 208 210 215 202 210 210 220 216 231 235 233 222
273 281 352 301 19 218 147 127 134 144 318 104 131 133 105 114 89 231 273 263 311 288 265 313 250 261 256 272 238 246 250 221 235 234 243 245 273 295 286 293 306 303 289 282 279 231 214 234 227 210 194 198 199 198 191 181 175 178 183 189 195 209 192 189 190 195 202 209 207 205 208 208 202 214 210 213 213 208 206 206 218 214 220 232 232 226
135 288 247 145 200 170 153 166 172 157 159 202 52 146 173 145 154 204 196 206 215 209 295 279 74 234 122 250 283 253 278 292 264 248 257 258 259 265 277 278 281 282 284 283 296 284 241 206 222 220 209 208 209 201 191 182 180 175 190 189 200 206 198 190 197 198 210 211 210 210 212 210 207 214 213 216 209 206 205 209 219 221 217 227 232 229
202 201 280 316 261 1 162 265 108 96 47 40 157 80 94 217 136 148 206 149 235 324 334 220 216 195 180 283 285 248 289 287 271 263 267 283 276 288 310 285 269 267 268 288 287 290 280 248 238 233 228 222 218 205 196 191 185 189 195 194 202 205 198 195 197 207 206 211 207 209 209 213 211 214 216 221 215 217 208 214 214 221 220 225 229 232
43 231 350 311 39 71 96 211 311 127 173 222 106 195 207 122 98 93 61 16 104 42 259 164 313 289 300 319 280 315 319 292 303 299 287 277 286 323 286 277 275 283 277 264 258 260 279 292 257 234 225 218 217 212 204 200 195 193 188 193 204 208 201 200 204 206 204 207 207 212 212 211 212 211 213 214 214 213 215 215 217 222 224 224 224 228
151 219 355 53 106 3 290 179 87 29 146 98 170 226 182 140 119 127 204 346 69 188 265 87 232 294 24 280 329 336 274 277 295 273 256 257 278 287 261 269 284 264 256 256 257 266 267 261 264 256 233 217 218 212 205 207 205 203 195 193 198 202 206 207 201 204 203 205 211 213 213 215 213 214 217 214 216 211 216 218 217 221 230 229 226 220
119 84 330 11 165 286 355 109 40 12 45 139 196 198 116 223 230 302 93 238 149 266 272 300 277 256 195 244 341 283 209 248 259 273 279 270 270 253 256 268 262 281 289 275 256 260 263 249 247 250 244 233 227 219 206 198 197 214 214 205 201 206 207 201 198 202 208 207 211 210 212 210 212 214 215 215 215 213 217 219 216 217 226 232 224 222
89 145 273 343 127 294 1 93 196 208 356 53 83 84 128 101 161 125 200 170 126 240 56 288 35 248 201 215 200 209 211 208 222 30 232 241 239 243 125 201 287 290 282 270 265 249 249 256 249 245 241 233 223 216 209 196 189 210 219 217 219 220 203 195 198 196 209 209 209 216 215 218 212 212 212 211 210 217 220 220 218 218 221 226 224 223
169 109 176 295 305 85 187 199 213 160 156 91 102 193 191 27 227 111 35 122 181 173 182 225 311 276 257 213 188 205 197 204 186 206 243 246 271 280 269 245 231 246 259 265 257 251 254 263 270 260 246 242 237 222 204 198 204 210 208 222 221 215 210 207 204 198 212 196 211 211 216 212 206 213 211 216 214 219 222 221 218 219 218 217 223 213
114 176 179 130 59 219 242 255 180 186 203 179 168 191 179 129 144 156 252 30 93 109 225 138 259 250 269 187 208 204 211 205 233 207 233 252 256 275 279 262 232 253 250 248 264 269 261 271 271 265 242 227 221 236 221 217 212 218 217 221 220 227 228 216 210 207 205 201 205 210 215 211 209 211 211 217 216 219 221 220 217 211 207 219 223 209
140 128 101 176 210 198 207 25 276 260 72 166 159 236 170 172 99 126 175 239 41 250 106 165 304 272 243 205 213 238 271 238 222 192 241 266 261 252 257 255 262 227 257 266 271 277 272 239 233 241 227 186 219 241 232 220 213 217 221 220 221 222 234 221 224 215 209 207 207 213 208 204 209 203 212 216 219 220 219 219 219 202 209 216 217 214
98 94 81 325 310 315 318 306 57 68 100 312 273 128 151 192 178 165 161 177 162 156 127 315 262 257 287 101 246 258 257 261 265 182 211 259 236 254 255 277 250 279 264 273 278 276 264 280 305 331 328 288 241 246 245 238 225 220 223 222 221 231 236 224 226 217 216 221 224 216 205 209 206 201 211 217 219 221 220 218 220 207 213 214 211 216
159 261 138 120 26 348 344 340 344 347 69 214 192 198 183 99 87 130 101 88 138 216 171 131 230 266 269 342 318 325 340 247 182 231 182 234 202 248 334 325 321 305 308 310 315 288 281 309 316 304 290 271 261 240 235 241 241 222 228 223 226 240 241 234 219 218 223 222 230 225 218 216 204 209 215 220 217 224 220 221 220 215 218 212 218 219
191 172 135 151 177 177 196 189 214 215 208 179 220 162 179 172 150 130 172 134 201 268 153 190 247 238 268 332 308 271 323 257 264 249 271 232 254 37 332 328 320 330 332 329 318 332 329 319 310 298 273 253 237 230 232 244 242 240 239 235 227 241 242 232 205 221 225 227 233 235 232 225 210 218 221 221 223 224 220 221 220 221 224 217 223 218
176 165 186 187 191 208 211 211 23 77 65 181 210 162 185 176 177 142 107 104 213 197 167 223 225 202 237 252 270 231 262 193 232 281 283 296 346 339 252 271 287 288 285 287 295 294 304 300 289 275 267 263 285 253 239 239 245 243 242 253 240 233 236 224 202 220 226 227 230 238 234 223 220 218 219 219 222 221 219 218 219 218 223 216 221 221
94 186 218 204 215 216 209 156 207 145 169 200 146 182 178 168 179 159 173 212 163 93 245 238 224 239 231 231 229 248 267 260 256 254 279 297 312 295 286 281 284 291 283 279 286 280 273 276 286 286 278 302 253 240 243 244 244 244 241 255 256 230 230 217 198 216 221 220 230 233 235 224 221 219 220 221 220 220 220 219 218 219 221 213 220 223
152 204 221 185 231 229 125 174 169 166 180 185 181 173 172 184 167 186 211 219 132 195 228 236 144 222 239 186 215 216 209 225 232 249 254 252 277 296 289 282 278 275 278 281 272 269 264 265 267 281 314 306 282 258 251 250 255 258 258 254 261 240 229 201 201 220 219 222 231 237 232 225 222 221 223 222 222 222 222 219 221 221 219 218 223 223
152 231 211 180 219 226 216 167 190 168 192 159 186 185 185 173 186 198 214 216 192 218 230 147 198 215 235 181 206 217 213 220 246 319 334 303 270 254 259 268 262 261 263 265 264 264 259 253 265 287 299 291 270 261 260 261 253 243 245 256 251 238 229 181 215 219 223 229 236 240 228 223 222 220 220 223 223 225 222 221 222 222 224 225 225 225
158 263 111 123 199 246 224 221 180 203 169 198 203 188 183 187 197 205 214 223 214 237 244 198 313 279 244 167 204 232 231 263 317 271 241 240 248 248 245 246 249 246 250 256 262 262 260 271 290 286 276 267 262 252 247 245 249 244 245 256 259 247 221 189 219 224 227 237 239 236 227 224 229 221 227 227 229 228 224 225 223 225 230 231 227 227
154 249 44 93 179 273 196 179 206 100 60 182 175 166 193 193 209 219 216 219 185 218 234 233 265 257 253 153 197 224 184 198 232 241 243 241 237 238 239 243 240 241 243 246 251 261 276 289 281 262 253 257 264 264 253 255 254 250 255 253 251 247 193 196 219 229 234 239 245 238 231 228 228 228 235 227 228 224 224 225 224 226 226 228 228 226
175 147 164 142 188 233 277 177 142 114 89 279 232 207 200 205 209 218 225 218 209 205 213 207 229 240 205 181 204 224 168 220 230 233 241 248 247 235 237 239 237 238 241 245 250 258 262 256 253 254 260 263 263 263 257 243 253 251 252 258 264 280 200 218 221 231 243 249 246 251 236 229 231 241 245 235 233 228 225 226 230 230 226 228 227 221
157 175 200 173 190 232 11 116 118 112 207 224 214 210 192 200 207 210 211 218 222 190 213 215 233 245 243 182 195 239 218 215 229 236 218 224 240 249 252 253 250 244 247 249 244 240 246 256 257 255 250 256 259 246 261 220 232 269 290 283 295 220 223 211 232 227 250 259 255 255 246 239 239 249 249 242 233 226 228 227 230 229 228 231 222 223
175 182 198 161 157 195 136 118 98 208 233 232 237 158 197 212 199 201 218 220 217 212 226 243 251 257 244 219 214 225 235 246 250 259 257 223 227 239 243 249 249 246 247 248 246 240 235 239 256 271 278 258 247 283 353 327 294 295 308 285 260 241 223 224 233 247 256 268 270 261 251 240 240 248 252 244 233 230 234 231 239 235 229 221 223 226
169 177 133 180 128 55 88 152 212 234 227 286 322 200 211 191 209 198 239 242 222 202 215 238 243 245 247 246 245 239 245 261 290 260 255 211 200 225 234 235 242 235 241 239 236 251 233 223 217 212 224 305 40 319 234 247 279 261 270 272 227 235 222 228 247 262 272 271 263 253 248 237 247 251 252 246 238 237 241 237 236 239 230 227 235 238
179 153 168 209 194 195 182 199 224 338 357 278 230 220 177 189 164 178 216 243 213 208 193 215 230 238 245 252 262 269 297 11 302 279 194 194 229 226 219 227 223 236 235 252 226 236 226 204 166 189 235 310 310 330 306 307 285 216 218 218 324 168 226 212 265 272 266 266 267 260 253 238 245 255 252 244 243 244 243 241 241 241 224 231 234 235
172 180 198 188 228 143 136 221 333 247 239 248 231 267 286 182 166 170 175 253 228 212 207 205 221 232 239 253 257 258 61 344 290 277 248 222 246 241 241 239 258 249 245 251 224 246 4 37 100 4 204 6 347 282 252 273 254 51 33 4 1 10 7 350 304 294 291 287 283 274 265 246 239 251 252 243 240 244 245 241 244 239 217 225 234 237
35 90 147 196 171 160 187 211 213 212 235 215 239 236 212 147 135 130 158 242 256 212 197 195 220 232 231 234 247 199 117 259 258 269 269 239 250 219 228 253 245 241 237 154 94 43 359 0 40 56 47 351 31 337 338 329 17 33 12 3 356 3 357 343 326 324 315 303 293 286 273 259 248 249 255 253 251 245 249 242 239 237 219 230 234 242
105 119 108 197 209 200 185 208 225 201 237 231 221 230 203 141 121 105 201 238 239 162 165 184 203 217 231 228 226 180 178 237 253 265 271 255 306 207 126 41 26 16 2 352 5 350 309 337 39 35 10 20 343 321 342 356 41 45 20 354 358 355 336 311 301 293 286 286 290 288 279 259 252 252 250 256 261 255 249 253 253 241 230 235 230 242
148 78 206 208 203 213 198 240 293 284 264 234 210 179 159 158 128 171 218 234 215 172 188 183 195 209 216 213 167 200 218 222 225 257 328 346 62 38 9 18 319 235 314 10 348 345 19 5 107 43 324 303 288 299 321 14 26 6 3 356 352 320 289 280 285 291 289 292 292 289 280 270 249 259 256 247 256 258 259 244 245 244 235 241 238 240
172 132 310 177 216 209 212 219 227 254 227 175 301 155 165 117 216 212 223 198 166 199 237 196 199 206 172 182 185 212 241 249 260 4 59 50 79 268 304 328 10 23 329 261 195 44 25 18 19 8 15 20 17 43 30 33 20 341 339 346 310 279 281 288 290 292 296 291 287 286 282 276 271 254 260 264 255 261 257 250 240 241 240 240 238 241
185 174 184 197 196 252 243 244 239 239 255 117 114 83 272 192 239 199 159 351 186 183 156 195 190 216 167 196 205 175 116 108 111 103 41 32 44 28 3 6 24 16 0 359 359 7 22 4 352 338 310 314 327 355 82 45 354 325 326 308 281 296 301 294 300 300 297 295 293 288 282 279 273 270 263 262 252 252 261 257 246 244 236 239 242 243
164 202 177 212 184 209 206 217 217 239 150 201 160 212 189 195 204 181 151 107 39 117 85 85 38 144 233 131 130 116 85 86 45 29 63 46 27 14 20 12 6 7 4 352 283 313 345 344 335 330 319 328 310 278 235 99 320 308 308 289 295 307 316 319 312 312 304 297 290 290 284 276 272 267 264 261 260 254 258 260 247 247 234 231 234 242
195 212 177 204 174 205 225 215 154 92 94 20 74 52 48 22 12 147 96 98 96 32 26 81 72 41 74 86 78 97 82 48 72 44 50 3 13 21 14 359 1 5 2 359 354 353 6 356 329 331 323 328 346 304 246 198 259 299 300 292 357 339 334 320 318 309 298 293 288 285 283 281 273 271 268 261 250 258 255 259 244 249 240 221 236 234
354 230 46 110 254 82 28 79 124 64 82 65 48 46 51 35 25 41 69 83 33 36 22 62 50 53 43 39 69 31 34 17 29 16 20 20 25 12 13 17 17 11 11 12 7 1 349 345 341 340 333 323 355 30 333 259 212 292 288 312 326 328 326 323 316 306 295 292 286 282 285 287 284 273 266 264 251 246 248 248 245 240 244 217 234 234
264 189 67 151 233 156 228 29 71 120 91 67 88 69 65 62 51 47 67 61 60 37 42 37 53 49 45 46 54 58 37 23 24 16 18 24 25 19 19 15 4 3 4 359 344 351 350 355 341 331 330 319 318 336 334 326 298 272 294 305 309 315 313 308 295 289 289 286 288 286 281 279 282 287 278 262 261 250 251 247 247 246 247 229 233 238
270 177 89 206 156 193 150 112 98 71 67 39 35 59 49 44 54 54 66 72 69 61 54 39 49 45 39 44 32 68 57 35 31 11 10 12 14 11 10 7 356 345 343 341 329 342 335 333 324 313 314 306 307 321 319 310 290 281 281 287 293 299 305 296 286 283 284 284 286 286 286 280 280 280 282 270 252 263 259 247 236 241 239 228 224 229
192 108 191 174 130 89 77 104 137 91 57 47 57 53 54 50 92 73 63 61 60 63 57 57 59 67 64 62 54 69 66 44 30 9 8 1 4 5 357 348 341 334 327 334 333 339 329 321 320 310 308 298 304 315 315 313 312 307 299 288 289 291 300 295 293 288 286 285 283 282 282 276 282 279 281 283 272 252 246 253 244 238 252 243 217 223
79 152 201 99 127 162 176 181 170 127 171 160 57 45 26 28 96 99 83 65 54 60 53 69 62 64 72 64 59 64 83 82 53 28 6 356 350 345 341 338 335 330 325 322 327 327 320 321 311 311 308 303 313 316 314 310 306 305 300 299 295 301 300 298 296 292 288 286 282 282 287 282 279 278 277 276 280 286 283 244 233 233 238 260 238 233
155 179 142 174 181 193 163 160 190 88 79 78 113 64 30 11 85 76 59 60 53 54 54 75 81 67 59 58 55 65 63 47 26 25 37 316 324 322 324 330 332 329 328 335 335 332 331 315 312 302 304 302 309 300 294 293 297 306 314 323 322 323 311 307 301 293 288 292 290 289 289 289 288 281 272 273 274 274 275 292 289 257 244 240 243 236